Evanston, WY

4:48 PM MDT on March 22, 2017 (GMT -0600)
Evanston-Uinta County Burns

Weather History for KEVW - June, 2013

Change the Weather History Date:

Saturday, June 29, 2013

  Actual Average Record
Temperature  
Mean Temperature 76 °F 62 °F  
Max Temperature 91 °F 76 °F 91 °F (2013)
Min Temperature 60 °F 49 °F 39 °F (2005)
Degree Days  
Heating Degree Days 0 4  
Month to date heating degree days 133 228  
Since 1 June heating degree days 133 228  
Since 1 July heating degree days 8024 8570  
Cooling Degree Days 11 1  
Month to date cooling degree days 45 7  
Year to date cooling degree days 45 8  
Since 1 June cooling degree days 45 7  
Growing Degree Days 26 (Base 50)    
Moisture  
Dew Point 40 °F    
Average Humidity 32    
Maximum Humidity 48    
Minimum Humidity 16    
Precipitation  
Precipitation 0.00 in 0.03 in 0.05 in (2004)
Month to date precipitation T 1.21  
Year to date precipitation 2.01 6.14  
Sea Level Pressure  
Sea Level Pressure 29.98 in    
Wind  
Wind Speed 8 mph (ENE)    
Max Wind Speed 20 mph    
Max Gust Speed 26 mph    
Visibility 10 miles    
Events      
T = Trace of Precipitation, MM = Missing Value Source: NWS Daily Summary

Daily Weather History Graph

Daily Weather History Graph

Search for Another Location

Airport or City:

Trip Planner

Search our weather history database for the weather conditions in past years. The results will help you decide how hot, cold, wet, or windy it might be!

Date:

Astronomy

Jun. 29, 2013 Rise Set
Actual Time 5:54 AM MDT 9:01 PM MDT
Civil Twilight 5:20 AM MDT 9:34 PM MDT
Nautical Twilight 4:37 AM MDT 10:17 PM MDT
Astronomical Twilight 3:45 AM MDT 11:09 PM MDT
Moon 12:27 AM MDT (6/29) 1:14 PM MDT (6/29)
Length of Visible Light 16h 14m
Length of Day
15h 07m
Waning Gibbous, 55% of the Moon is Illuminated
Jun 29
Waning Gibbous
Jun 29
Last Quarter
Jul 8
New
Jul 15
First Quarter
Jul 22
Full

Hourly Weather History & Observations

Time (MDT) Temp. Dew Point Humidity Pressure Visibility Wind Dir Wind Speed Gust Speed Precip Events Conditions
12:53 AM 66.0 °F 36.0 °F 33% 30.03 in 10.0 mi East 9.2 mph - N/A   Clear
1:53 AM 68.0 °F 34.0 °F 28% 30.01 in 10.0 mi South 4.6 mph - N/A   Clear
2:53 AM 68.0 °F 34.0 °F 28% 30.01 in 10.0 mi East 3.5 mph - N/A   Clear
3:53 AM 66.9 °F 34.0 °F 30% 30.01 in 10.0 mi ENE 3.5 mph - N/A   Clear
4:53 AM 63.0 °F 35.1 °F 35% 30.02 in 10.0 mi East 5.8 mph - N/A   Clear
5:53 AM 62.1 °F 37.0 °F 39% 30.04 in 10.0 mi East 4.6 mph - N/A   Clear
6:53 AM 63.0 °F 39.9 °F 43% 30.04 in 10.0 mi ESE 5.8 mph - N/A   Clear
7:53 AM 64.0 °F 44.1 °F 48% 30.06 in 10.0 mi SSE 3.5 mph - N/A   Clear
8:53 AM 70.0 °F 46.0 °F 42% 30.06 in 10.0 mi ENE 8.1 mph - N/A   Clear
9:53 AM 73.9 °F 48.0 °F 40% 30.05 in 10.0 mi Variable 5.8 mph - N/A   Clear
10:53 AM 77.0 °F 48.0 °F 36% 30.02 in 10.0 mi East 8.1 mph - N/A   Clear
11:53 AM 82.0 °F 48.0 °F 30% 30.00 in 10.0 mi Variable 4.6 mph - N/A   Clear
12:53 PM 86.0 °F 42.1 °F 21% 30.00 in 10.0 mi North 9.2 mph - N/A   Clear
1:53 PM 86.0 °F 39.9 °F 20% 29.96 in 10.0 mi ENE 6.9 mph 17.3 mph N/A   Clear
2:53 PM 90.0 °F 37.9 °F 16% 29.93 in 10.0 mi NW 11.5 mph 17.3 mph N/A   Clear
3:53 PM 88.0 °F 36.0 °F 16% 29.92 in 10.0 mi West 11.5 mph 20.7 mph N/A   Partly Cloudy
4:53 PM 86.0 °F 42.1 °F 21% 29.93 in 10.0 mi NNE 11.5 mph - N/A   Scattered Clouds
5:53 PM 84.0 °F 39.0 °F 20% 29.94 in 10.0 mi North 13.8 mph - N/A   Clear
6:53 PM 88.0 °F 37.9 °F 17% 29.91 in 10.0 mi North 10.4 mph 17.3 mph N/A   Clear
7:53 PM 82.0 °F 41.0 °F 23% 29.92 in 10.0 mi East 10.4 mph - N/A   Clear
8:53 PM 75.0 °F 44.1 °F 33% 29.93 in 10.0 mi East 11.5 mph - N/A   Clear
9:53 PM 72.0 °F 43.0 °F 35% 29.94 in 10.0 mi East 11.5 mph - N/A   Clear
10:53 PM 69.1 °F 42.1 °F 38% 29.96 in 10.0 mi East 8.1 mph - N/A   Clear
11:53 PM 68.0 °F 41.0 °F 37% 29.95 in 10.0 mi East 10.4 mph - N/A   Clear